INMARSAT 5-F4 (42698 NORAD) Tracking and Keplerian Element Data

This shows tracking and keplerian element data for the satellite.

Feedback or suggestion? Click here.




ElementValue
Catalog42698
NameINMARSAT 5-F4
Epoch Orbit671
Epoch Day77.89101469
Epoch Year2019
RAAN158.671
Inclination0.0184
Eccentricity1.52E-05
Argument of Perigee356.1596
Mean Anonmoly38.5585
Mean Motion1.00269103
Decay Rate5.2E-07
L11 42698U 17025A 19077.89101469 .00000052 00000-0 00000+0 0 9992
L22 42698 0.0184 158.6710 0000152 356.1596 38.5585 1.00269103 6715

Live tracking and technical data element details for INMARSAT 5-F4 (NORAD 42698). INMARSAT 5-F4 can be tracked NOW for your location showing map with azimuth and elevation plus other details from your city location.

Track the satellite on the map from your city or location and see movement details for azimuth, elevation, latitude, longitude, range, height, and movement on the map or in text.







IsCatalogInMostPopularTable: catalog: 42698, numindb: 260
Update: records affected: 1



GetName: 42698 INMARSAT 5-F4

Hit Count: updated at: Wed, 20 Mar 2019 05:19:45 GMT